User: anonymous   Login
Location: Unspecified
(0.0000°N, 0.0000°E)
Time: 17:19:34
(UTC+00:00)
Language:

DUCHIFAT 1 - Orbit

View from above orbital plane
View from above orbital plane
View from above satellite
View from above satellite

Ground track
Ground track

The orbit data is extracted from the following two-line orbital elements,

1 40021U 14033M   19293.59193668 +.00000398 +00000-0 +46432-4 0  9992
2 40021 097.9254 218.6006 0013237 008.1383 352.0047 14.90709005290004
Epoch (UTC): 20 October 2019 14:12:23
Eccentricity: 0.0013237
inclination: 97.9254°
perigee height: 586 km
apogee height: 605 km
right ascension of ascending node: 218.6006°
argument of perigee: 8.1383°
revolutions per day: 14.90709005
mean anomaly at epoch: 352.0047°
orbit number at epoch: 29000

The dashed part of the orbit path shows where the satellite is in the earth's shadow,  

DLR